Location: Cornospital
(48.0620°N, 3.3837°W)
Time: 14:52:34
(UTC+00:00)

FALCON 9 DEB - Pass Details

Date: 17 June 2021
Orbit: 363 x 379 km, 53.0° (Epoch: 30 July)

Event Time Altitude Azimuth Distance (km) Brightness Sun altitude
Exits shadow 23:24:44 14° 248° (WSW) 1,211 5.3 -17.7°
Maximum altitude 23:27:24 79° 334° (NNW) 400 2.9 -17.7°
Drops below altitude 10° 23:30:35 10° 62° (ENE) 1,421 5.9 -17.9°
Sets 23:32:39 0° 64° (ENE) 2,278 7.0 -17.9°
